User: anonymous   Login
Location: Girdwood
(60.9430°N, 149.1660°W)
Time: 03:44:32
(UTC-09:00)
Language:

Iridium 86 - Orbit

View from above orbital plane
View from above orbital plane
View from above satellite
View from above satellite

Ground track
Ground track

The orbit data is extracted from the following two-line orbital elements,

1 25528U 98066B   15062.30962914  .00000661  00000-0  22878-3 0  9992
2 25528 086.3999 339.6768 0001986 088.0036 272.1387 14.34220375859417
Epoch (UTC): 03 March 2015 07:25:51
Eccentricity: 0.0001986
inclination: 86.3999°
perigee height: 776 km
apogee height: 779 km
right ascension of ascending node: 339.6768°
argument of perigee: 88.0036°
revolutions per day: 14.34220375
mean anomaly at epoch: 272.1387°
orbit number at epoch: 85941

The dashed part of the orbit path shows where the satellite is in the earth's shadow,  

DLR